Regional Weather Roundup
Issued by NWS

Home | Current Version | Previous Version | Graphics & Text | Print | Product List | Glossary On
Versions: 1 2 3 4 5 6 7 8 9 10 11 12 13 14 15 16 17 18 19 20 21 22 23 24 25 26 27 28 29 30 31 32 33 34 35 36 37 38 39 40 41 42 43 44 45 46 47 48 49 50
000
ASUS43 KDTX 070010
RWRMI
MICHIGAN HOURLY REGIONAL WEATHER ROUNDUP
NATIONAL WEATHER SERVICE DETROIT/PONTIAC MI
ISSUED BY NATIONAL WEATHER SERVICE GRAND RAPIDS MI
800 PM EDT WED MAY 06 2015

NOTE: "FAIR" INDICATES FEW OR NO CLOUDS BELOW 12,000 FEET WITH NO
SIGNIFICANT WEATHER AND/OR OBSTRUCTION TO VISIBILITY.

MIZ047>049-052>055-059>063-066>070-074>076-081>083-070100-
SOUTHEAST LOWER MICHIGAN

CITY           SKY/WX    TMP DP  RH WIND       PRES   REMARKS
ADRIAN         CLEAR     65  59  81 E7        30.16F
6HR MIN TEMP:  59; 6HR MAX TEMP:  68;

ALMA           CLEAR     72  59  64 SE3       30.14S
ANN ARBOR      CLEAR     67  59  75 S6        30.16F
BAD AXE        CLEAR     62  49  62 E5        30.17S
DETROIT CITY   CLEAR     67  57  70 SE3       30.16F
6HR MIN TEMP:  64; 6HR MAX TEMP:  69;

DETROIT        MOCLDY    68  59  73 SE5       30.17S
6HR MIN TEMP:  67; 6HR MAX TEMP:  72;

FLINT          CLEAR     74  57  55 SE3       30.14F
6HR MIN TEMP:  69; 6HR MAX TEMP:  77;

GROSSE ILE     CLEAR     55  52  88 S3        30.16S FOG
HILLSDALE      CLEAR     68  62  79 SE6       30.15S
6HR MIN TEMP:  65; 6HR MAX TEMP:  71;

HOWELL         CLEAR     71  59  66 SE7       30.15S
6HR MIN TEMP:  68; 6HR MAX TEMP:  74;


CITY           SKY/WX    TMP DP  RH WIND       PRES   REMARKS
JACKSON        CLEAR     69  59  70 SE8       30.14F
6HR MIN TEMP:  63; 6HR MAX TEMP:  72;

LANSING        CLEAR     71  60  68 SE6       30.14F
6HR MIN TEMP:  65; 6HR MAX TEMP:  74;

MASON          CLEAR     70  61  73 SE5       30.14F
MONROE         CLEAR     61  54  77 SE5       30.15S
MT. CLEMENS    PTCLDY    65  59  80 S6        30.14F
6HR MIN TEMP:  64; 6HR MAX TEMP:  69;

PONTIAC        PTCLDY    69  57  65 SE9       30.15F
6HR MIN TEMP:  66; 6HR MAX TEMP:  73;

PORT HOPE        N/A     52  44  74 SE9       30.16F
6HR MIN TEMP:  45; 6HR MAX TEMP:  52;

PORT HURON     CLEAR     55  48  76 NE6       30.18S
TRI CITIES     CLEAR     65  50  58 NE10      30.16F
6HR MIN TEMP:  65; 6HR MAX TEMP:  74;

YPSILANTI      CLEAR     71  60  68 S9        30.16F
6HR MIN TEMP:  70; 6HR MAX TEMP:  76;

$$
MIZ043>046-050>051-056>058-064>065-071>073-077>080-070100-
SOUTHWEST LOWER MICHIGAN

CITY           SKY/WX    TMP DP  RH WIND       PRES   REMARKS
BATTLE CREEK   CLEAR     74  61  63 S5        30.13S
6HR MIN TEMP:  67; 6HR MAX TEMP:  78;

BENTON HARBOR  PTCLDY    74  59  59 CALM      30.08F
6HR MIN TEMP:  73; 6HR MAX TEMP:  78;

BIG RAPIDS     CLEAR     73  56  55 S7        30.12S
6HR MIN TEMP:  67; 6HR MAX TEMP:  75;

COLDWATER      CLEAR     69  61  74 SE5       30.13S HAZE
6HR MIN TEMP:  66; 6HR MAX TEMP:  73;

HOLLAND        PTCLDY    76  62  62 E5        30.10F
6HR MIN TEMP:  70; 6HR MAX TEMP:  78;

GRAND RAPIDS   PTCLDY    71  61  70 E8        30.12F
6HR MIN TEMP:  65; 6HR MAX TEMP:  75;

KALAMAZOO      CLEAR     76  61  59 E3        30.11F
6HR MIN TEMP:  69; 6HR MAX TEMP:  79;

MARSHALL       CLEAR     72  61  69 SE3       30.12F
MOUNT PLEASANT CLEAR     73  56  54 S3        30.13F
6HR MIN TEMP:  68; 6HR MAX TEMP:  75;

MUSKEGON       MOCLDY    75  59  57 E9        30.10F
6HR MIN TEMP:  71; 6HR MAX TEMP:  78;

STURGIS        CLEAR     73  63  68 E8        30.11S
$$
MIZ016>042-070100-
NORTHERN LOWER MICHIGAN

CITY           SKY/WX    TMP DP  RH WIND       PRES   REMARKS
ALPENA         PTCLDY    56  43  61 E8        30.17F
6HR MIN TEMP:  56; 6HR MAX TEMP:  66;

BEAVER ISLAND  CLEAR     60  40  48 E8        30.13F
6HR MIN TEMP:  60; 6HR MAX TEMP:  67;

BELLAIRE       PTCLDY    73  49  42 CALM      30.11F
6HR MIN TEMP:  72; 6HR MAX TEMP:  76;

CADILLAC       MOCLDY    72  56  57 E6        30.12F
CHARLEVOIX     PTCLDY    65  40  39 CALM      30.15F
6HR MIN TEMP:  52; 6HR MAX TEMP:  66;

GAYLORD        PTCLDY    69  49  48 SW5       30.13F
6HR MIN TEMP:  69; 6HR MAX TEMP:  72;

HOUGHTON LAKE  CLEAR     70  49  47 SE7       30.14F
6HR MIN TEMP:  64; 6HR MAX TEMP:  73;

MANISTEE       CLEAR     64  48  55 W6        30.12S
OSCODA         PTCLDY    55  44  67 E3        30.18F
PELLSTON       PTCLDY    69  43  38 E8        30.13F
6HR MIN TEMP:  69; 6HR MAX TEMP:  74;

TRAVERSE CITY  PTCLDY    62  40  44 E3        30.11F
6HR MIN TEMP:  56; 6HR MAX TEMP:  73;

LUDINGTON      CLEAR     67  55  65 N3        30.11F
6HR MIN TEMP:  67; 6HR MAX TEMP:  73;

$$
MIZ007>008-015-070100-
EASTERN UPPER MICHIGAN

CITY           SKY/WX    TMP DP  RH WIND       PRES   REMARKS
KINROSS        PTCLDY    63  39  42 SE9       30.15S
6HR MIN TEMP:  63; 6HR MAX TEMP:  70;

MACKINAC ISLAN CLEAR     46  39  75 E10       30.14F
6HR MIN TEMP:  46; 6HR MAX TEMP:  55;

NEWBERRY       CLEAR     65  33  29 S8        30.12F
S. S. MARIE    PTCLDY    64  37  36 SE9       30.15S
6HR MIN TEMP:  64; 6HR MAX TEMP:  70;

$$
MIZ004>006-011>014-085-070100-
CENTRAL UPPER MICHIGAN

CITY           SKY/WX    TMP DP  RH WIND       PRES   REMARKS
MANISTIQUE     CLEAR     57  40  52 SE8       30.12F
6HR MIN TEMP:  57; 6HR MAX TEMP:  64;

ESCANABA       CLEAR     57  36  44 SE5       30.11F
6HR MIN TEMP:  55; 6HR MAX TEMP:  59;

MENOMINEE      PTCLDY    57  46  67 E5        30.10F
6HR MIN TEMP:  55; 6HR MAX TEMP:  61;

$$
MIZ001>003-009>011-084-070100-
WESTERN UPPER MICHIGAN

CITY           SKY/WX    TMP DP  RH WIND       PRES   REMARKS
IRON MOUNTAIN  SUNNY     66  50  56 SE10      30.07S
6HR MIN TEMP:  65; 6HR MAX TEMP:  70;

HOUGHTON       MOSUNNY   56  32  40 E12       30.04F
6HR MIN TEMP:  56; 6HR MAX TEMP:  69;

COPPER HARBOR    N/A     63  30  28 VRB7      30.04F
6HR MIN TEMP:  63; 6HR MAX TEMP:  70;

IRONWOOD       MOSUNNY   72  57  60 SE14G20   29.96F
6HR MIN TEMP:  61; 6HR MAX TEMP:  72;

$$

ABBREVIATIONS USED IN REMARKS
   TC - TEMPERATURE IN CELSIUS
  WCI - WIND CHILL INDEX
   HX - HEAT INDEX
  VSB - VISIBILITY




USA.gov is the U.S. government's official web portal to all federal, state and local government web resources and services.